Погода в Ласта

Россия / Республика Коми     64°55′36″N   53°48′31″E
темп.,
°C
ветер,
м/с
пор.,
м/с
влажн.,
%
обл.,
%
осадки,
мм/ч
давл.,
гПа
погр.,
м
28 ноября, вс
вс2800:00−21зюз0010042 0.0 10159
03:00−22вюв1110045 0.0 10169
06:00−21в1199100 0.0 101627
09:00−17в2695100 0.0 1015109
12:00−12в31090100 0.0 1013370
15:00−11всв41295100 1.1 1010453
18:00−11всв41195100 2.0 1007459
21:00−10всв3895100 3.5 1005360
29 ноября, пн
пн2900:00−10св2696100 0.7 1004265
03:00−10ссв2496100 1.6 1003210
06:00−10с2596100 1.2 1002222
09:00−10ссз2595100 1.8 1003254
12:00−11сз3695100 0.1 1006267
15:00−12сз379596 0.2 1009313
18:00−15сз379778 0.1 1012201
21:00−20сз24996 0.1 101554
30 ноября, вт
вт3000:00−24сз1110055 0.0 101710
03:00−26с1110080 0.0 10179
06:00−26всв1110077 0.0 101710
09:00−26всв1210083 0.0 101636
12:00−19всв2129838 0.0 1013239
15:00−14всв51883100 0.0 1007412
18:00−12в62174100 0.0 1002621
21:00−9в71991100 0.7 9961027
1 декабря, ср
ср100:00−9вюв71792100 3.3 9921040
03:00−9в61593100 6.3 988815
06:00−9в51294100 1.8 987580
09:00−9в41295100 2.8 986480
12:00−8в41295100 1.6 986444
15:00−4вюв41296100 2.7 986440
18:000ю51195100 0.7 987780
21:00−1ююв41195100 1.1 988660
2 декабря, чт
чт200:00−2ююв3995100 0.1 987523
03:00−4в2598100 0.4 986130
06:00−3в2597100 0.1 984191
09:00−5всв3797100 1.5 983312
12:00−6св2697100 2.3 982367
15:00−7ссв3796100 4.2 982340
18:00−10с4895100 1.4 983390
21:00−11с3895100 2.2 985531